GW0162 Weather Reports


time (UTC)temp
F
wind
direction
speed
knots
gust
knots
rain 1hr
in
rain 24hr
in
rain mn
in
humidity
%
barometer
mb
20260510143038 51 280 2.6 13.0 0.00 0.00 0.00 38 1016.6
20260510141537 50 297 4.3 7.8 0.00 0.00 0.00 38 1016.4
20260510140054 50 329 2.6 7.8 0.00 0.00 0.00 41 1016.1
20260510134544 49 329 3.5 8.7 0.00 0.00 0.00 43 1016.0
20260510133044 49 334 1.7 7.8 0.00 0.00 0.00 47 1015.9
20260510131538 48 316 2.6 7.0 0.00 0.00 0.00 48 1015.7
20260510130048 47 304 0.0 5.2 0.00 0.00 0.00 54 1015.5
20260510124555 47 311 1.7 6.1 0.00 0.00 0.00 61 1015.7
20260510123046 46 314 1.7 4.3 0.00 0.00 0.00 64 1015.6
20260510121543 44 335 0.9 5.2 0.00 0.00 0.00 70 1015.5
20260510120043 42 0 2.6 5.2 0.00 0.00 0.00 78 1015.4
20260510114542 41 38 0.9 5.2 0.00 0.00 0.00 86 1015.2
20260510113038 38 0 0.0 0.0 0.00 0.00 0.00 89 1014.9
20260510111537 37 0 0.0 0.0 0.00 0.00 0.00 90 1014.6
20260510110045 35 0 0.0 0.0 0.00 0.00 0.00 89 1014.4
20260510104544 34 0 0.0 0.0 0.00 0.00 0.00 89 1014.2
20260510103048 34 0 0.0 0.0 0.00 0.00 0.00 88 1014.2
20260510101540 34 0 0.0 0.0 0.00 0.00 0.00 87 1013.9
20260510100039 35 0 0.0 0.0 0.00 0.00 0.00 87 1013.6
20260510094546 35 0 0.0 0.0 0.00 0.00 0.00 86 1013.4
20260510093039 35 0 0.0 0.0 0.00 0.00 0.00 86 1013.2
20260510091543 36 0 0.0 0.0 0.00 0.00 0.00 85 1013.0
20260510090045 36 0 0.0 0.0 0.00 0.00 0.00 83 1012.7
20260510084539 37 0 0.0 0.0 0.00 0.00 0.00 83 1012.4
20260510083037 37 0 0.0 0.0 0.00 0.00 0.00 82 1012.0
20260510081543 38 0 0.0 0.0 0.00 0.00 0.00 80 1011.8
20260510080040 39 0 0.0 0.0 0.00 0.00 0.00 77 1011.6
20260510074543 39 0 0.0 0.0 0.00 0.00 0.00 77 1011.3
20260510073040 40 0 0.0 0.0 0.00 0.00 0.00 75 1011.2
20260510071538 42 0 0.0 0.0 0.00 0.00 0.00 71 1011.2
20260510070052 42 0 0.0 0.9 0.00 0.00 0.00 69 1011.1
20260510064538 43 0 0.0 3.5 0.00 0.00 0.00 68 1010.9
20260510063045 44 0 0.0 3.5 0.00 0.00 0.00 67 1010.7
20260510061550 44 0 0.9 7.8 0.00 0.00 0.00 66 1010.7
20260510060042 45 25 0.9 7.0 0.00 0.00 0.00 66 1010.5
20260510054551 46 360 1.7 8.7 0.00 0.00 0.00 65 1010.3
20260510053038 47 0 2.6 10.4 0.00 0.00 0.00 62 1010.0
20260510051543 48 106 2.6 9.6 0.00 0.00 0.00 64 1009.9
20260510050052 48 34 0.0 2.6 0.00 0.00 0.00 67 1009.5
20260510044547 49 0 0.0 3.5 0.00 0.00 0.00 63 1009.1
20260510043040 50 0 0.9 7.0 0.00 0.00 0.00 62 1008.9
20260510041553 52 0 1.7 5.2 0.00 0.00 0.00 59 1008.7
20260510040040 53 336 3.5 8.7 0.00 0.00 0.00 50 1008.3
20260510034542 53 344 0.0 7.8 0.00 0.00 0.00 52 1008.1
20260510033051 53 0 1.7 5.2 0.00 0.00 0.00 51 1007.8
20260510031552 53 336 2.6 8.7 0.00 0.00 0.00 53 1007.8
20260510030045 52 0 0.9 7.0 0.00 0.00 0.00 63 1007.5
20260510024601 53 0 0.0 0.0 0.00 0.00 0.00 62 1007.4
20260510023040 54 0 0.9 7.8 0.00 0.00 0.00 58 1007.0
20260510021538 56 0 2.6 7.8 0.00 0.00 0.00 54 1006.5
20260510020046 57 30 1.7 8.7 0.00 0.00 0.00 51 1006.2
20260510014541 56 36 1.7 9.6 0.00 0.00 0.00 55 1005.3
20260510013049 57 0 0.0 4.3 0.00 0.00 0.00 64 1004.7
20260510011546 58 0 0.0 0.0 0.00 0.00 0.00 51 1004.5
20260510010046 59 0 0.0 0.0 0.00 0.00 0.00 47 1004.2
20260510004545 61 0 0.0 0.0 0.00 0.00 0.00 44 1004.0
20260510003048 62 0 0.0 4.3 0.00 0.00 0.00 42 1003.8
20260510001544 63 290 1.7 9.6 0.00 0.00 0.00 41 1003.7
20260510000045 63 0 0.9 10.4 0.00 0.00 0.00 39 1003.5
20260509234538 65 285 5.2 12.2 0.00 0.00 0.00 36 1003.3
20260509233053 66 302 6.1 12.2 0.00 0.00 0.00 36 1003.0
20260509231555 66 277 6.1 13.0 0.00 0.00 0.00 35 1002.8
20260509230043 66 268 9.6 21.7 0.00 0.00 0.00 34 1002.5
20260509224544 67 288 7.8 13.9 0.00 0.00 0.00 33 1002.2
20260509223046 67 282 8.7 15.6 0.00 0.00 0.00 35 1001.9
20260509221543 68 278 7.0 14.8 0.00 0.00 0.00 36 1001.7
20260509220041 68 298 9.6 23.5 0.00 0.00 0.00 33 1001.3
20260509214537 68 284 10.4 19.1 0.00 0.00 0.00 34 1001.2
20260509213046 68 277 8.7 20.9 0.00 0.00 0.00 36 1001.0
20260509211554 67 287 7.8 14.8 0.00 0.00 0.00 41 1001.1
20260509210053 66 245 1.7 7.0 0.00 0.00 0.00 58 1001.2
20260509204540 65 263 0.9 8.7 0.00 0.00 0.00 61 1001.5
20260509203039 64 261 3.5 8.7 0.00 0.00 0.00 65 1001.8
20260509201546 62 0 1.7 7.8 0.00 0.00 0.00 73 1001.8
20260509200049 59 250 2.6 5.2 0.00 0.00 0.00 78 1002.0
20260509194546 56 0 0.9 5.2 0.00 0.00 0.00 84 1002.1
20260509193044 54 0 1.7 10.4 0.00 0.00 0.00 77 1002.9
20260509191540 57 286 8.7 26.9 0.00 0.00 0.00 69 1003.1
20260509190042 62 194 7.8 20.0 0.00 0.00 0.00 62 1001.1
20260509184543 63 184 7.0 13.9 0.00 0.00 0.00 58 1001.1
20260509183048 64 230 6.1 19.1 0.00 0.00 0.00 59 1001.1
20260509181546 64 190 7.8 18.2 0.00 0.00 0.00 58 1001.1
20260509180044 65 169 7.0 20.9 0.00 0.00 0.00 59 1001.1
20260509174546 64 215 7.0 19.1 0.00 0.00 0.00 60 1001.3
20260509173105 64 163 7.0 15.6 0.00 0.00 0.00 62 1001.4
20260509171548 62 209 7.0 16.5 0.00 0.00 0.00 66 1001.7
20260509170046 62 175 6.1 13.0 0.00 0.00 0.00 66 1001.7
20260509164544 61 181 5.2 14.8 0.00 0.00 0.00 66 1002.3
20260509163045 63 213 4.3 14.8 0.00 0.00 0.00 65 1002.0
20260509161542 61 186 6.1 17.4 0.00 0.00 0.00 68 1002.4
20260509160038 60 188 6.1 13.0 0.00 0.00 0.00 69 1002.7
20260509154538 60 169 3.5 12.2 0.00 0.00 0.00 73 1002.7
20260509153045 59 179 1.7 9.6 0.00 0.00 0.00 75 1003.0
20260509151555 57 183 1.7 7.8 0.00 0.00 0.00 81 1003.3
20260509150049 55 205 0.0 4.3 0.00 0.00 0.00 83 1003.9
20260509144539 55 0 0.0 8.7 0.00 0.00 0.00 84 1004.1